Volver al catálogo

TIANXIANG 2

ActivoCienciaVLEO
NORAD 44316·PAYLOAD·🇨🇳 China
Este nombre de satélite aún no ha sido confirmado por fuentes oficiales.

Lanzado Jun 5, 2019 desde Yellow Sea Launch Area

Loading…

Próximos Pases (próximas 24 horas)

TLE

ActualizadoSource: Space-Track

Época: Sep 14, 2026, 13:39 UTC

1 44316U 19032G   26257.56895334  .00008435  00000-0  30597-3 0  9995
2 44316  44.9708 292.4526 0009724  37.0146 323.1406 15.28763035400750

Sigue TIANXIANG 2 en tiempo real con AllMySat

Download on the App Store